Location: Newark
(42.9858°N, 0.6717°E)
Time: 10:59:10
(UTC+00:00)

S-56A Canister/Altair - Pass Details

Date: 23 November 2019
Orbit: 632 x 2500 km, 38.9° (Epoch: 15 December)

Event Time Altitude Azimuth Distance (km) Brightness Sun altitude
Rises 15:08:00 0° 231° (SW) 5,919 14.3 11.2°
Reaches altitude 10° 15:12:22 10° 226° (SW) 4,718 15.4 10.6°
Maximum altitude 15:24:07 47° 159° (SSE) 2,127 10.1 8.9°
Drops below altitude 10° 15:32:13 10° 88° (E) 3,295 10.3 7.8°
Sets 15:34:43 0° 82° (E) 4,043 10.7 7.4°
